Estación Meteorológica Peña el Pijo (Robertgarden) [ 09/30/20 10:17:03 CEST ]

Fecha Hora Presion(HPa) Temp (°C) Humedad % Rocio (°C) Viento ( m/s) Direccion Lluvia 1Hora(mm) Lluvia 24H(mm) LLuvia Total(mm)
2020-May-23 01:09:12 1017.300 - - - - W     39.88
2020-May-23 02:09:19 1017.300 - - - - W     39.88
2020-May-23 03:09:11 1017.100 - - - - W     39.88
2020-May-23 04:08:40 1017.000 - - - - W     39.88
2020-May-23 05:08:46 1016.800 - - - - W     39.88
2020-May-23 06:09:06 1017.000 - - - - W     39.88
2020-May-23 07:09:36 1017.400 - - - - W     39.88
2020-May-23 08:09:50 1017.200 - - - - W     39.88
2020-May-23 09:10:19 1017.200 - - - - W     39.88
2020-May-23 10:10:23 1017.400 - - - - W     39.88
2020-May-23 11:09:12 1017.400 - - - - W     39.88
2020-May-23 12:09:07 1017.700 - - - - W     39.88
2020-May-23 13:09:34 1017.400 - - - - W     39.88
2020-May-23 14:09:17 1016.900 - - - - W     39.88
2020-May-23 15:09:05 1016.600 - - - - W     39.88
2020-May-23 16:08:48 1016.000 - - - - W     39.88
2020-May-23 17:09:16 1015.700 - - - - W     39.88
2020-May-23 18:09:36 1015.600 - - - - W     39.88
2020-May-23 19:09:43 1015.400 - - - - W     39.88
2020-May-23 20:09:25 1016.000 - - - - W     39.88
2020-May-23 21:09:18 1016.100 - - - - W     39.88
2020-May-23 22:08:58 1016.600 - - - - W     39.88
2020-May-23 23:09:06 1017.400 - - - - W     39.88

Temperatura Máxima:    Temperatura Mínima:
Presión Máxima:1017.700 Hpa    Presión Mínima:1015.400 Hpa


Volver